Location: Saint Louis
(38.6270°N, 90.1980°W)
Time: 09:02:15
(UTC-05:00)

ISS - Pass Details

Date: 10 October 2013
Orbit: 401 x 404 km, 51.6° (Epoch: 29 July)

Event Time Altitude Azimuth Distance (km) Brightness Sun altitude
Rises 21:01:15 0° 269° (W) 2,357 1.6 -30.2°
Reaches altitude 10° 21:03:46 10° 288° (WNW) 1,497 0.4 -30.7°
Enters shadow 21:04:25 13° 296° (WNW) 1,319 0.1 -30.8°
